COSMOS 1176 COOLANT

Satellite information

Favourite Embed

Satellite Type and Status

DEBRISIN ORBIT

Key statistics

Satellite COSMOS 1176 COOLANT at a glance.

Uptime

16665

Days in orbit

Revolutions

≈ 14.1

Per day

Orbit

LEO

Low Earth Orbit

Inclination

64.8

Latest

Satellite identification and parameters

Extended collection of information and parameters for COSMOS 1176 COOLANT.

Object identification

Identified? True

Debris? False

Object name: COSMOS 1176 COOLANT

International designator: 1980-034E

Object number (NORAD): 27568

Object ID (CCSDS): 27568

Country: COMMONWEALTH OF INDEPENDENT STATES (CIS)

Current information (Y/N): Y

RCS size: SMALL

Orbital parameters

Period: 101.909 minutes

Inclination: 64.8252 deg

SMA: 7227.157 km

Apoapsis: 887.771 km

Periapsis: 810.273 km

RAAN: 275.6077 deg

Eccentricy: 0.00536158

Argument of periapsis: 285.8333 deg

Mean anomaly: 73.6834 deg

Mean motion: 14.13030426 rev/day

Mean motion (dot): 0.00001835 rev/day2

B* drag term: 0.0010196796 1/REarth

Two-line elements (TLE)

Creation date: Dec. 11, 2025, 7:14 p.m.

Reference frame: TEME

Reference center: EARTH

Epoch: Dec. 11, 2025, 10:17 a.m. UTC

TLE line 0: 0 COSMOS 1176 COOLANT

TLE line 1: 1 27568U 80034E 25345.42863233 .00001835 00000-0 10197-2 0 9990

TLE line 2: 2 27568 64.8252 275.6077 0053616 285.8333 73.6834 14.13030426 72952

Live tracking on map

Real-time ground track for satellite COSMOS 1176 COOLANT.

In-orbit conjunctions

A list of the most updated potential collisions computed for object COSMOS 1176 COOLANT.

Target Orbit TCA Probability of collision Miss distance Type
COSMOS 1697 LEO 2025-01-14 13:34:09 0.0001212295 935.0 (m) PAYLOAD
CZ-6A DEB LEO 2024-11-14 23:12:13 0.0004021078 163.0 (m) DEBRIS
SL-14 DEB LEO 2024-11-09 23:06:45 0.0002627946 788.0 (m) DEBRIS

Associated space launch

Active radar satellite for ocean surveillance powered by a nuclear reactor.

COSMOS 1176 COOLANT was lifted into orbit during the mission ‘Tsiklon-2 | US-A 16’, on board a Tsiklon-2 space rocket.

The launch took place on April 29, 1980, 11:40 a.m. from 90.

For more information about the launch, click the button.

Launch to space Tsiklon-2 | US-A 16
Tsiklon-2 | US-A 16

Agency: N/A

Status: Launch Successful

Launch date: April 29, 1980, 11:40 a.m. UTC

Rocket: Tsiklon-2

Launch pad: 90

Location: Baikonur Cosmodrome, Republic of Kazakhstan

...

Latest news about this satellite

There are no fresh news available about this satellite. Check back as we update our databases every day.


Newsletter sign-up

Weekly statistics, charts and insights to help you stay on top of the space industry.